FENGYUN 3B

Last updated on Sun Oct 26 2025 00:02:30 GMT+0000 (Coordinated Universal Time)

1 37214U 10059A 25298.52748726 .00000148 00000+0 99848-4 0 9993 2 37214 98.9983 338.1501 0022922 130.1882 6.1187 14.14769957774246
UTC large
Height (km)
Speed (km/s)
/
Latitude / Longitude
Inclination (degrees)
Orbital Period (minutes)
Azimuth
Elevation
Range (km)
Doppler Factor

Next 0 passes for location: London (51.5072 / 0.1276)

Sorry there are no passes over London.